Weather History for KRWI - February, 2014

Change the Weather History Date:

Sunday, February 23, 2014

  Actual Average Record
Temperature  
Mean Temperature 49 °F -  
Max Temperature 66 °F 59 °F 80 °F (1975)
Min Temperature 32 °F 36 °F 11 °F (1978)
Degree Days  
Heating Degree Days 16    
Moisture  
Dew Point 36 °F    
Average Humidity 63    
Maximum Humidity 93    
Minimum Humidity 33    
Precipitation  
Precipitation 0.00 in - - ()
Sea Level Pressure  
Sea Level Pressure 30.01 in    
Wind  
Wind Speed 3 mph (SSW)    
Max Wind Speed 13 mph    
Max Gust Speed -    
Visibility 10 miles    
Events      
Averages and records for this station are not official NWS values.
T = Trace of Precipitation, MM = Missing Value Source: NWS Daily Summary

Daily Weather History Graph

Daily Weather History Graph

Search for Another Location

Airport or City:

Trip Planner

Search our weather history database for the weather conditions in past years. The results will help you decide how hot, cold, wet, or windy it might be!

Date:

Astronomy

Feb. 23, 2014 Rise Set
Actual Time 6:49 AM EST 6:01 PM EST
Civil Twilight 6:23 AM EST 6:26 PM EST
Nautical Twilight 5:53 AM EST 6:56 PM EST
Astronomical Twilight 5:24 AM EST 7:26 PM EST
Moon 1:39 AM EST (2/23) 12:07 PM EST (2/23)
Length of Visible Light 12h 03m
Length of Day
11h 11m
Last Quarter, 39% of the Moon is Illuminated
Feb 23
Last Quarter
Mar 1
New
Mar 8
First Quarter
Mar 16
Full
Mar 23
Last Quarter

Hourly Weather History & Observations

Time (EST) Temp. Dew Point Humidity Pressure Visibility Wind Dir Wind Speed Gust Speed Precip Events Conditions
12:53 AM 36.0 °F 33.1 °F 89% 30.12 in 10.0 mi Calm Calm - N/A   Clear
1:53 AM 34.0 °F 32.0 °F 92% 30.10 in 10.0 mi Calm Calm - N/A   Clear
2:53 AM 34.0 °F 30.9 °F 89% 30.09 in 10.0 mi Calm Calm - N/A   Clear
3:53 AM 34.0 °F 32.0 °F 92% 30.10 in 10.0 mi Calm Calm - N/A   Clear
4:53 AM 34.0 °F 32.0 °F 92% 30.09 in 10.0 mi Calm Calm - N/A   Clear
5:53 AM 32.0 °F 30.0 °F 92% 30.10 in 10.0 mi Calm Calm - N/A   Clear
6:53 AM 34.0 °F 32.0 °F 92% 30.11 in 10.0 mi Calm Calm - N/A   Clear
7:53 AM 37.9 °F 36.0 °F 93% 30.11 in 10.0 mi Calm Calm - N/A   Clear
8:53 AM 50.0 °F 39.9 °F 68% 30.11 in 10.0 mi SSW 4.6 mph - N/A   Clear
9:53 AM 55.9 °F 36.0 °F 47% 30.10 in 10.0 mi WSW 6.9 mph - N/A   Scattered Clouds
10:53 AM 62.1 °F 36.0 °F 38% 30.07 in 10.0 mi Variable 5.8 mph - N/A   Clear
11:53 AM 63.0 °F 37.9 °F 40% 30.04 in 10.0 mi South 8.1 mph - N/A   Clear
12:53 PM 63.0 °F 37.9 °F 40% 30.01 in 10.0 mi SW 8.1 mph - N/A   Clear
1:53 PM 66.0 °F 37.9 °F 36% 29.98 in 10.0 mi WSW 12.7 mph - N/A   Clear
2:53 PM 66.9 °F 37.0 °F 33% 29.96 in 10.0 mi SSW 11.5 mph - N/A   Clear
3:53 PM 64.9 °F 37.0 °F 36% 29.94 in 10.0 mi South 8.1 mph - N/A   Clear
4:53 PM 64.0 °F 37.9 °F 38% 29.94 in 10.0 mi SSW 9.2 mph - N/A   Clear
5:53 PM 57.9 °F 37.9 °F 47% 29.92 in 10.0 mi South 5.8 mph - N/A   Clear
6:53 PM 55.0 °F 39.0 °F 55% 29.91 in 10.0 mi South 5.8 mph - N/A   Clear
7:53 PM 55.9 °F 37.9 °F 51% 29.91 in 10.0 mi SSW 6.9 mph - N/A   Clear
8:53 PM 51.1 °F 37.9 °F 61% 29.90 in 10.0 mi South 4.6 mph - N/A   Clear
9:53 PM 50.0 °F 37.9 °F 63% 29.90 in 10.0 mi South 3.5 mph - N/A   Clear
10:53 PM 48.0 °F 37.9 °F 68% 29.89 in 10.0 mi SSW 3.5 mph - N/A   Clear
11:53 PM 48.9 °F 39.0 °F 69% 29.88 in 10.0 mi South 4.6 mph - N/A   Clear